Regional Weather Roundup
Issued by NWS

Home | Current Version | Previous Version | Graphics & Text | Print | Product List | Glossary On
Versions: 1 2 3 4 5 6 7 8 9 10 11 12 13 14 15 16 17 18 19 20 21 22 23 24 25 26 27 28 29 30 31 32 33 34 35 36 37 38 39 40 41 42 43 44 45 46 47 48 49 50
000
ASUS43 KBIS 301810
RWRND

NORTH DAKOTA REGIONAL WEATHER ROUNDUP
NATIONAL WEATHER SERVICE BISMARCK ND
100 PM CDT TUE AUG 30 2016

NOTE: "FAIR" INDICATES FEW OR NO CLOUDS BELOW 12,000 FEET WITH NO
SIGNIFICANT WEATHER AND/OR OBSTRUCTIONS TO VISIBILITY.


NDZ001>003-009>011-017-301900-
NORTHWEST NORTH DAKOTA

CITY           SKY/WX    TMP DP  RH WIND       PRES   REMARKS
WILLISTON      SUNNY     82  47  29 SE15      30.18F
6HR MIN TEMP:  49; 6HR MAX TEMP:  83;

MINOT          MOSUNNY   80  41  24 SE10      30.24F
MINOT AFB      MOSUNNY   78  44  29 S12       30.23F
$$

NDZ018>021-031>035-040>046-301900-
SOUTHWEST NORTH DAKOTA

CITY           SKY/WX    TMP DP  RH WIND       PRES   REMARKS
BISMARCK       SUNNY     79  47  32 SE10      30.25F
6HR MIN TEMP:  48; 6HR MAX TEMP:  79;

DICKINSON      CLOUDY    77  51  40 S14G21    30.23F
GARRISON         N/A     78  48  34 S13G20    30.24F
6HR MIN TEMP:  46; 6HR MAX TEMP:  78;

HETTINGER ARPT SUNNY     80  59  48 E12       30.25S
$$

NDZ004>008-012>016-024-026-027-054-301900-
NORTHEAST NORTH DAKOTA

CITY           SKY/WX    TMP DP  RH WIND       PRES   REMARKS
GRAND FORKS    MOSUNNY   76  51  41 W5        30.23F
GRND FRKS AFB  SUNNY     75  50  41 N6        30.24F
DEVILS LAKE    SUNNY     72  52  49 S7        30.27F
$$

NDZ022-023-025-028>030-036>039-047>053-301900-
SOUTHEAST NORTH DAKOTA

CITY           SKY/WX    TMP DP  RH WIND       PRES   REMARKS
FARGO          SUNNY     77  51  40 N5        30.23F
6HR MIN TEMP:  50; 6HR MAX TEMP:  78;

JAMESTOWN      SUNNY     76  50  40 E5        30.26F
$$





USA.gov is the U.S. government's official web portal to all federal, state and local government web resources and services.